Volver al catálogo

OPS 4682 DEB

ActivoPO
NORAD 19113·DEBRIS·🇺🇸 United States

Lanzado Apr 3, 1965 desde Vandenberg Space Force Base

Loading…

Próximos Pases (próximas 24 horas)

TLE

ActualizadoSource: Space-Track

Época: Sep 11, 2026, 06:53 UTC

1 19113U 65027AQ  26254.28734823  .00000007  00000-0 -20916-5 0  9992
2 19113  90.2567  16.0897 0036195 190.8065 197.4305 13.06321172646203

Sigue OPS 4682 DEB en tiempo real con AllMySat

Download on the App Store